EHI
0 0 0 0 0 0 0 0 0 0 0 0 0 0 0 0 0 0 0 0 0 0 0 0 0 0 0 0 0 0 0 0 0 0 0 0 0 0 0 0 0 0 0
0 0 0 0 0 0 0 0 0 0 0 0 0 0 0 0 0 0 0 0 0 0 0 0 0 0 0 0 0 0 0 0 0 0 0 0 0 0 0 0 0 0 0
0 0 0 0 0 0 0 0 0 0 0 0 0 0 0 0 0 0 0 0 0 0 0 0 0 0 0 0 0 0 0 0 0 0 0 0 0 0 0 0 0 0 0
0 0 0 0 0 0 0 0 0 0 0 0 0 0 0 0 0 0 0 0 0 0 0 0 0 0 0 0 0 0 0 0 0 0 0 0 0 0 0 0 0 0 0
0 0 0 0 0 0 0 0 0 0 0 0 0 0 0 0 0 0 0 0 0 0 0 0 0 0 0 0 0 0 0 0 0 0 0 0 0 0 0 0 0 0 0
0 0 0 0 0 0 0 0 0 0 0 0 0 0 0 0 0 0 0 0 0 0 0 0 0 0 0 0 0 0 0 0 0 0 0 0 0 0 0 0 0 0 0
0 0 0 0 0 0 0 0 0 0 0 0 0 0 0 0 0 0 0 0 0 0 0 0 0 0 0 0 0 0 0 0 0 0 0 0 0 0 0 0 0 0 0
0 0 0 0 0 0 0 0 0 0 0 0 0 0 0 0 0 0 0 0 0 0 0 0 0 0 0 0 0 0 0 0 0 0 0 0 0 0 0 0 0 0 0
0 0 0 0 0 0 0 0 0 0 0 0 0 0 0 0 0 0 0 0 0 0 0 0 0 0 0 0 0 0 0 0 0 0 0 0 0 0 0 0 0 0 0
0 0 0 0 0 0 0 0 0 0 0 0 0 0 0 0 0 0 0 0 0 0 0 0 0 0 0 0 0 0 0 0 0 0 0 0 0 0 0 0 0 0 0
0 0 0 0 0 0 0 0 0 0 0 0 0 0 0 0 0 0 0 0 0 0 0 0 0 0 0 0 0 0 0 0 0 0 0 0 0 0 0 0 0 0 0
0 0 0 0 0 0 0 0 0 0 0 0 0 0 0 0 0 0 0 0 0 0 0 0 0 0 0 0 0 0 0 0 0 0 0 0 0 0 0 0 0 0 0
0 0 0 0 0 0 0 0 0 0 0 0 0 0 0 0 0 0 0 0 0 0 0 0 0 0 0 0 0 0 0 0 0 0 0 0 0 0 0 0 0 0 0
0 0 0 0 0 0 0 0 0 0 0 0 0 0 0 0 0 0 0 0 0 0 0 0 0 0 0 0 0 0 0 0 0 0 0 0 0 0 0 0 0 0 0
0 0 0 0 0 0 0 0 0 0 0 0 0 0 0 0 0 0 0 0 0 0 0 0 0 0 0 0 0 0 0 0 0 0 0 0 0 0 0 0 0 0 0
0 0 0 0 0 0 0 0 0 0 0 0 0 0 0 0 0 0 0 0 0 0 0 0 0 0 0 0 0 0 0 0 0 0 0 0 0 0 0 0 0 0 0
0 0 0 0 0 0 0 0 0 0 0 0 0 0 0 0 0 0 0 0 0 0 0 0 0 0 0 0 0 0 0 0 0 0 0 0 0 0 0 0 0 0 0
0 0 0 0 0 0 0 0 0 0 0 0 0 0 0 0 0 0 0 0 0 0 0 0 0 0 0 0 0 0 0 0 0 0 0 0 0 0 0 0 0 0 0
0 0 0 0 0 0 0 0 0 0 0 0 0 0 0 0 0 0 0 0 0 0 0 0 0 0 0 0 0 0 0 0 0 0 0 0 0 0 0 0 0 0 0
0 0 0 0 0 0 0 0 0 0 0 0 0 0 0 0 0 0 0 0 0 0 0 0 0 0 0 0 0 0 0 0 0 0 0 0 0 0 0 0 0 0 0
0 0 0 0 0 0 0 0 0 0 0 0 0 0 0 0 0 0 0 0 0 0 0 0 0 0 0 0 0 0 0 0 0 0 0 0 0 0 0 0 0 0 0
0 0 0 0 0 0 0 0 0 0 0 0 0 0 0 0 0 0 0 0 0 0 0 0 0 0 0 0 0 0 0 0 0 0 0 0 0 0 0 0 0 0 0
0 0 0 0 0 0 0 0 0 0 0 0 0 0 0 0 0 0 0 0 0 0 0 0 0 0 0 0 0 0 0 0 0 0 0 0 0 0 0 0 0 0 0
0 0 0 0 0 0 0 0 0 0 0 0 0 0 0 0 0 0 0 0 0 0 0 0 0 0 0 0 0 0 0 0 0 0 0 0 0 0 0 0 0 0 0
0 0 0 0 0 0 0 0 0 0 0 0 0 0 0 0 0 0 0 0 0 0 0 0 0 0 0 0 0 0 0 0 0 0 0 0 0 0 0 0 0 0 0
0 0 0 0 0 0 0 0 0 0 0 0 0 0 0 0 0 0 0 0 0 0 0 0 0 0 0 0 0 0 0 0 0 0 0 0 0 0 0 0 0 0 0
Wind_Speed
5 4 4 3 3 2 2 1 1 1 1 1 1 1 2 2 2 2 3 3 4 4 4 4 4 4 3 3 2 2 1 1 1 2 2 3 4 4 4 5 5 6 6
5 5 4 4 3 2 2 2 1 1 2 2 1 2 2 2 3 3 4 4 4 5 5 5 5 4 5 4 3 3 3 2 1 2 1 2 3 4 4 5 4 4 5
6 5 5 4 4 3 3 2 2 2 2 2 2 3 3 3 4 4 5 5 6 6 5 6 5 5 6 4 4 4 3 3 2 2 2 1 1 3 3 3 4 4 4
7 6 5 5 4 3 3 3 3 3 3 3 3 4 4 4 4 5 5 6 6 6 6 6 6 6 5 4 4 4 3 3 3 3 2 1 1 2 2 3 3 3 3
7 7 6 5 5 4 4 4 4 3 3 4 4 4 4 3 3 4 5 6 6 6 6 6 6 7 7 5 4 4 3 2 2 2 2 1 1 2 2 3 3 3 2
8 7 7 6 6 5 5 5 4 4 4 4 4 4 4 3 6 6 5 5 5 5 5 5 6 6 7 8 8 8 6 3 2 2 1 1 1 2 2 3 3 3 2
9 8 8 7 7 6 6 6 5 5 4 4 4 4 4 6 7 7 7 5 5 4 4 4 3 4 4 4 6 6 7 7 5 2 1 1 1 2 2 3 3 4 4
9 9 8 8 7 7 7 6 6 5 4 4 4 4 4 5 7 7 7 4 4 4 3 3 3 3 3 3 3 3 4 4 4 2 2 2 2 2 2 3 3 4 4
10 10 9 9 8 8 7 7 6 5 5 4 4 4 4 5 6 7 6 4 3 3 2 2 1 2 3 2 2 2 2 2 3 3 3 3 3 3 3 2 3 3 3
10 10 9 9 9 8 8 7 6 5 5 5 4 4 4 4 6 6 6 2 3 3 3 2 1 0 2 2 1 1 1 1 0 1 1 1 0 1 1 2 2 3 2
9 9 9 9 8 8 7 7 6 6 6 5 5 4 4 4 6 7 6 3 3 3 2 2 2 2 2 2 2 2 1 1 2 2 2 1 1 1 1 1 1 2 3
9 9 9 8 7 7 7 7 7 7 7 6 5 5 4 4 5 7 8 6 4 3 3 2 2 3 3 3 3 2 2 3 2 2 2 2 2 2 2 2 3 4 4
9 9 9 8 8 8 8 8 7 7 6 6 6 5 5 5 5 8 9 8 8 5 3 3 3 4 4 4 4 4 3 3 3 3 3 2 2 2 3 3 3 4 6
9 9 8 8 8 8 7 7 7 7 7 6 6 6 5 5 6 6 6 6 7 6 4 5 6 5 5 4 4 4 4 3 4 4 3 3 2 3 3 3 4 4 4
9 8 8 8 8 7 7 7 8 8 8 8 7 6 6 6 8 10 7 6 5 5 5 4 4 4 5 5 4 4 4 4 4 4 4 4 4 4 4 3 4 4 4
8 8 7 7 6 6 7 6 9 9 11 13 10 8 7 8 8 12 13 12 11 9 7 5 6 5 5 5 5 5 5 5 5 4 4 4 4 4 4 4 4 5 6
8 8 7 7 7 7 7 7 6 8 12 14 15 15 13 11 12 12 13 13 12 12 8 7 6 6 6 6 5 5 5 5 4 5 5 5 5 5 5 5 5 6 6
8 8 7 7 7 7 7 7 6 6 6 7 11 16 16 15 14 14 13 11 9 10 8 8 7 7 6 6 6 6 5 5 5 6 6 5 5 5 6 6 6 7 6
7 6 6 6 6 6 6 6 6 7 6 6 5 8 14 14 15 15 14 9 9 8 8 8 8 7 7 7 6 6 6 6 6 6 6 6 6 6 6 6 6 9 8
6 9 8 6 6 6 6 7 7 7 7 7 7 7 7 8 8 9 10 9 9 9 9 8 8 8 7 7 7 6 6 7 7 7 7 6 6 7 7 8 7 7 7
5 6 10 7 6 7 7 7 7 7 7 7 7 8 11 8 9 9 9 9 10 10 9 8 8 8 8 7 7 8 9 7 7 7 7 7 7 7 7 7 7 8 8
4 5 6 6 6 6 7 7 7 7 8 9 7 8 14 10 8 8 9 9 9 9 8 8 8 8 8 8 8 8 8 8 8 7 7 7 7 7 7 7 7 7 8
5 5 5 6 6 8 8 7 7 7 7 8 7 7 7 8 9 9 9 8 8 8 8 8 8 8 7 7 8 8 9 9 8 8 7 7 7 7 7 8 9 9 9
5 5 6 5 6 6 6 7 7 7 8 7 7 7 8 8 9 9 9 8 7 8 8 8 9 11 12 9 7 8 8 8 7 7 10 9 8 8 8 8 9 10 10
4 5 5 5 6 6 6 7 7 7 7 7 7 7 8 8 8 8 8 7 8 8 9 9 8 9 12 13 11 9 12 15 13 9 8 9 10 10 9 10 9 10 10
4 4 4 5 5 6 6 7 7 7 7 7 7 7 7 7 8 8 7 7 7 8 8 8 10 11 12 11 13 15 16 17 17 17 10 8 10 9 10 9 11 11 11
Wind_Direction
148 141 140 130 126 129 124 110 95 78 61 49 43 46 51 53 61 87 90 91 94 88 82 84 79 70 72 58 54 57 48 353 169 103 58 26 23 23 23 24 22 21 25
153 152 145 140 144 147 134 118 108 100 82 74 79 82 74 69 73 91 95 91 94 92 88 88 82 78 73 62 58 60 57 38 86 128 85 38 32 22 18 23 20 18 20
162 162 159 159 161 154 141 127 121 115 108 99 96 91 87 82 83 87 94 92 90 87 86 86 82 79 73 64 60 61 57 55 54 107 97 62 37 21 9 16 19 16 17
169 172 172 169 163 151 143 139 131 124 116 108 100 95 93 93 93 97 100 100 95 86 80 78 76 76 76 75 67 63 64 74 85 99 99 82 51 24 357 360 359 4 2
175 177 173 166 159 155 154 147 138 130 121 118 116 112 107 102 100 108 107 105 102 94 83 78 74 71 66 64 62 61 62 72 83 92 95 87 57 23 11 357 339 334 351
180 177 168 169 167 166 162 155 147 139 134 129 122 119 114 104 112 113 112 109 108 107 101 92 86 79 76 73 67 59 50 56 72 82 90 84 50 21 2 345 337 332 330
181 175 172 174 174 170 166 162 158 152 145 136 129 127 119 116 121 119 114 114 112 107 109 107 94 82 73 79 81 80 70 58 45 30 68 46 26 6 347 332 338 325 316
180 178 176 176 175 172 171 169 165 159 154 146 140 136 130 124 129 128 127 119 115 113 112 110 113 110 89 76 84 78 73 66 51 33 40 31 11 351 326 305 305 297 288
184 182 180 179 177 177 177 174 169 166 159 158 154 152 150 141 142 147 150 142 136 135 132 130 123 125 119 130 109 95 94 91 78 52 37 35 23 0 335 304 306 307 302
186 182 179 180 181 181 179 173 171 171 168 165 164 170 173 170 161 168 176 168 165 162 168 170 181 203 148 190 211 197 200 108 114 163 181 162 232 80 341 310 307 295 299
175 173 176 180 182 179 174 171 171 172 171 174 175 182 191 193 185 189 193 203 194 190 195 197 189 214 230 227 254 255 268 276 254 264 263 256 257 266 288 307 301 275 276
168 172 177 180 177 174 173 172 175 177 180 184 189 193 200 202 210 205 207 214 216 214 214 212 204 223 244 241 247 251 235 245 254 257 261 264 274 284 296 296 289 276 264
171 176 178 178 178 176 178 178 179 186 192 193 197 203 203 202 208 216 218 217 216 225 223 221 229 231 237 236 236 238 233 240 245 249 256 262 270 279 281 277 272 267 265
178 179 179 181 182 182 185 187 190 193 197 200 203 208 206 205 206 204 210 214 217 221 221 218 226 228 237 246 234 226 234 245 253 257 261 261 253 253 258 268 279 287 284
184 183 183 187 186 187 195 199 201 206 206 203 206 206 206 212 212 206 203 207 209 211 208 215 220 221 225 225 226 230 230 229 237 245 250 254 254 256 259 258 263 268 267
185 186 187 188 189 192 196 204 216 219 219 222 221 215 220 226 215 212 215 219 219 216 215 226 228 228 232 232 231 229 226 229 232 236 242 248 253 257 261 258 256 260 267
193 190 188 189 191 195 198 201 204 214 223 227 226 223 224 222 220 218 218 220 222 219 225 232 234 234 234 233 234 234 233 229 226 232 238 242 246 251 254 257 256 258 263
200 195 193 195 196 198 201 203 204 203 205 216 223 225 225 224 223 222 220 220 224 222 228 233 235 234 234 233 232 232 232 228 222 229 234 236 238 243 248 252 254 257 265
199 198 198 198 199 201 201 202 205 209 214 214 207 217 221 224 226 225 220 222 225 225 226 230 233 233 233 232 231 229 228 228 227 227 232 233 233 237 244 249 254 259 260
206 204 198 197 198 201 202 205 207 210 214 216 217 213 200 205 216 218 218 221 225 229 228 229 229 229 228 228 227 224 225 226 225 225 229 231 230 233 240 245 249 255 256
206 205 203 203 205 205 206 210 212 212 215 219 222 214 202 205 215 218 218 221 224 227 228 228 228 226 224 223 223 222 224 227 225 224 226 227 228 232 237 242 245 249 255
207 207 204 207 208 209 212 214 216 219 221 224 226 220 219 218 221 223 223 224 226 227 226 226 227 225 222 218 218 219 221 225 223 221 224 225 225 231 235 239 243 247 250
213 212 212 213 212 217 218 217 218 222 224 226 225 218 215 220 224 225 227 227 225 224 223 223 227 228 224 219 218 218 221 223 221 217 220 224 225 229 232 236 240 245 249
219 219 220 219 217 220 223 223 223 226 228 228 227 226 225 226 228 230 230 229 227 226 224 223 227 230 226 222 221 221 224 225 221 219 219 224 228 231 233 238 242 245 249
226 225 226 225 222 224 228 230 230 230 231 231 232 232 232 231 232 233 231 229 228 229 228 227 228 232 231 229 227 225 227 227 224 220 217 222 230 232 235 240 242 247 249
242 240 238 235 233 232 232 233 234 234 235 235 235 235 236 235 236 236 234 231 231 232 233 231 231 231 233 232 233 232 234 235 234 230 226 227 231 234 234 239 244 247 252